Location: Azul
(36.7830°S, 59.8500°W)
Time: 18:37:15
(UTC-03:00)

VELOX 1 - Pass Details

Date: 25 October 2021
Orbit: 627 x 641 km, 98.3° (Epoch: 06 December)

Event Time Altitude Azimuth Distance (km) Brightness Sun altitude
Rises 05:21:59 0° 165° (SSE) 2,960 ? -8.4°
Reaches altitude 10° 05:24:13 10° 163° (SSE) 2,041 ? -8.0°
Maximum altitude 05:28:39 73° 78° (ENE) 669 ? -7.1°
Drops below altitude 10° 05:33:01 10° 353° (N) 2,007 ? -6.3°
Sets 05:35:12 0° 350° (N) 2,905 ? -5.9°
